Regional Weather Roundup
Issued by NWS

Home | Current Version | Previous Version | Graphics & Text | Print | Product List | Glossary On
Versions: 1 2 3 4 5 6 7 8 9 10 11 12 13 14 15 16 17 18 19 20 21 22 23 24 25 26 27 28 29 30 31 32 33 34 35 36 37 38 39 40 41 42 43 44 45 46 47 48 49 50
000
ASUS45 KABQ 280910
RWRNM
WEATHER ROUNDUP FOR NEW MEXICO
NATIONAL WEATHER SERVICE ALBUQUERQUE NM
200 AM MST FRI NOV 28 2014

NOTE: "FAIR" MEANS FEW OR NO CLOUDS BELOW 12,000 FEET AGL WITH NO
       SIGNIFICANT WEATHER OR OBSTRUCTIONS TO VISION.

      THIS PRODUCT IS RELEASED AS TWO VERSIONS.  ONE VERSION NEAR
      THE TOP OF THE HOUR CONTAINING PRELIMINARY DATA FROM ALBUQUERQUE
      AND OTHER STATIONS.  A FINAL VERSION WITH ADDITIONAL DATA IS
      ISSUED ABOUT 10 MINUTES AFTER THE HOUR.

NMZ501-503-504-510>518-281000-
NORTHWEST PLATEAU/NORTHCENTRAL MOUNTAINS

CITY           SKY/WX    TMP DP  RH WIND       PRES   REMARKS
FARMINGTON     CLEAR     28  19  69 E7        30.30F WCI  21
LOS ALAMOS     CLEAR     42  16  36 CALM      30.34F
SANTA FE       PTCLDY    33  17  51 VRB6      30.32S WCI  28
TAOS           CLEAR     25  19  80 E6        30.35S WCI  18
ANGEL FIRE     FAIR      18  10  73 CALM      30.36S

$$
NMZ402-403-502-505>509-281000-
WESTCENTRAL MOUNTAINS/SOUTHWEST MOUNTAINS

CITY           SKY/WX    TMP DP  RH WIND       PRES   REMARKS
GALLUP         MOCLDY    22   7  52 NE5       30.34S WCI  16
GRANTS         PTCLDY    21   7  53 NW12      30.36F WCI   9
SILVER CITY    CLEAR     36  19  51 N12       30.32F WCI  27

$$
NMZ407-409-411-412-281000-
SOUTHERN DESERTS

CITY           SKY/WX    TMP DP  RH WIND       PRES   REMARKS
LORDSBURG      FAIR      32  19  59 SE5       30.28S WCI  27
DEMING         PTCLDY    34  20  56 CALM      30.28S
LAS CRUCES     CLEAR     34  19  53 CALM      30.29S
HOLLOMAN AFB   PTCLDY    33  18  55 N3        30.28S
ALAMOGORDO     PTCLDY    32  19  59 SE3       30.29S
T OR C         CLEAR     41  20  43 W10       30.29S

$$
NMZ519>523-281000-
CENTRAL VALLEYS/CENTRAL HIGHLANDS

CITY           SKY/WX    TMP DP  RH WIND       PRES   REMARKS
ALBUQUERQUE    MOCLDY    36  19  50 CALM      30.31S
DOUBLE EAGLE   MOCLDY    27  13  57 CALM      30.32S
MORIARTY ARPT  FAIR      22  18  83 CALM      30.34R
CLINES CORNERS CLOUDY    37  19  48 NW15      30.30S WCI  28
BELEN          FAIR      29  16  57 N5        30.31S WCI  24
SOCORRO        FAIR      33  18  55 S3        30.30S

$$
NMZ524>526-539-540-281000-
SOUTHCENTRAL MOUNTAINS

CITY           SKY/WX    TMP DP  RH WIND       PRES   REMARKS
RUIDOSO        PTCLDY    41   9  26 SW3       30.34S

$$
NMZ527>531-281000-
NORTHEAST HIGHLANDS/NORTHEAST PLAINS

CITY           SKY/WX    TMP DP  RH WIND       PRES   REMARKS
LAS VEGAS      MOCLDY    42  10  27 W3        30.27S
RATON          MOCLDY    33  19  56 N7        30.22S WCI  27
CLAYTON        MOCLDY    58  15  18 W14       30.11F

$$
NMZ532>537-281000-
EASTCENTRAL PLAINS

CITY           SKY/WX    TMP DP  RH WIND       PRES   REMARKS
TUCUMCARI      CLOUDY    42  28  57 SW10      30.13F
CANNON AFB     PTCLDY    39  27  62 W7        30.18F WCI  34
CLOVIS AIRPORT MOCLDY    43  27  52 W18       30.17S

$$
NMZ028-029-538-281000-
SOUTHEAST PLAINS

CITY           SKY/WX    TMP DP  RH WIND       PRES   REMARKS
ROSWELL        PTCLDY    34  27  75 N3        30.22S
CARLSBAD       CLEAR     34  28  79 CALM      30.21S
HOBBS          PTCLDY    36  28  75 SW7       30.24S WCI  30


$$


USA.gov is the U.S. government's official web portal to all federal, state and local government web resources and services.